This is the latest recevied weather packets stored in our database for station/object SQ7IQO. If no packets are shown the sender has not sent any weather packets the latest 10 day(s).
| Time | Temp. | Humidity | Pressure | Rain* | Wind** | Luminosity | Snow |
|---|---|---|---|---|---|---|---|
| 1787928340 | 26.11° C | 38% | 1017 hPa | 0 mm | 0.45 m/s, ° | - | - |
| 1787928280 | 26.11° C | 38% | 1017 hPa | 0 mm | 0 m/s | - | - |
| 1787928220 | 26.11° C | 39% | 1016.9 hPa | 0 mm | 0 m/s | - | - |
| 1787928160 | 26.11° C | 37% | 1017 hPa | 0 mm | 0.45 m/s, ° | - | - |
| 1787928100 | 26.67° C | 36% | 1016.9 hPa | 0 mm | 0 m/s | - | - |
| 1787928040 | 26.67° C | 38% | 1017 hPa | 0 mm | 1.34 m/s, ° | - | - |
| 1787927980 | 27.22° C | 38% | 1017 hPa | 0 mm | 0 m/s | - | - |
| 1787927920 | 27.78° C | 37% | 1017 hPa | 0 mm | 0.45 m/s, ° | - | - |
| 1787927860 | 27.78° C | 38% | 1017 hPa | 0 mm | 0 m/s | - | - |
| 1787927800 | 27.22° C | 37% | 1017 hPa | 0 mm | 0 m/s | - | - |
| 1787927740 | 26.67° C | 38% | 1017 hPa | 0 mm | 0 m/s | - | - |
| 1787927680 | 26.11° C | 38% | 1017 hPa | 0 mm | 0 m/s | - | - |
| 1787927620 | 26.11° C | 36% | 1017 hPa | 0 mm | 0.45 m/s, ° | - | - |
| 1787927560 | 26.67° C | 37% | 1016.9 hPa | 0 mm | 0.45 m/s, ° | - | - |
| 1787927500 | 26.11° C | 38% | 1016.9 hPa | 0 mm | 0 m/s | - | - |
| 1787927440 | 26.11° C | 38% | 1016.9 hPa | 0 mm | 0 m/s | - | - |
| 1787927380 | 26.11° C | 38% | 1016.9 hPa | 0 mm | 0.89 m/s, ° | - | - |
| 1787927320 | 26.11° C | 38% | 1016.9 hPa | 0 mm | 0 m/s | - | - |
| 1787927260 | 26.11° C | 37% | 1017 hPa | 0 mm | 0.45 m/s, ° | - | - |
| 1787927200 | 26.11° C | 35% | 1017 hPa | 0 mm | 0.45 m/s, ° | - | - |
| 1787927140 | 26.67° C | 38% | 1017 hPa | 0 mm | 0.89 m/s, ° | - | - |
| 1787927080 | 26.11° C | 37% | 1017.2 hPa | 0 mm | 0.45 m/s, ° | - | - |
| 1787927020 | 26.11° C | 37% | 1017.1 hPa | 0 mm | 0.45 m/s, ° | - | - |
| 1787926960 | 26.67° C | 37% | 1017.2 hPa | 0 mm | 0.89 m/s, ° | - | - |
| 1787926900 | 26.67° C | 37% | 1017.3 hPa | 0 mm | 0.45 m/s, ° | - | - |
* Rain latest hour (hover to see other rain measurements)
** Current wind speed in m/s (hover to see current wind gust speed)